Location: Helsinki
(60.1699°N, 24.9384°E)
Time: 23:14:22
(UTC+02:00)

Altair - Pass Details

Date: 03 November 2020
Orbit: 1502 x 1682 km, 47.2° (Epoch: 25 November)

Event Time Altitude Azimuth Distance (km) Brightness Sun altitude
Rises 05:28:13 0° 234° (SW) 4,648 - -17.5°
Exits shadow 05:31:06 - 227° (SW) 3,798 9.1 -17.2°
Reaches altitude 10° 05:31:31 10° 226° (SW) 3,681 9.1 -17.1°
Maximum altitude 05:39:34 35° 165° (SSE) 2,316 8.6 -16.1°
Drops below altitude 10° 05:47:51 10° 105° (ESE) 3,795 10.9 -15.1°
Sets 05:51:19 0° 97° (E) 4,808 12.1 -14.7°
